[[{"header":{"parameterUnit":"m.s-1","parameterCategory":1,"la1":30.2991,"la2":30.254,"lo1":-89.0895,"lo2":-89.0444,"dy":0.0017,"dx":0.0017,"nx":28,"ny":28,"refTime":"2024-04-04T21:00:00:Z","depth":0,"parameterNumber":2,"parameterNumberName":"U-component_of_WINDS"},"data":[0,0,0,0,0,0,0,0,0,0,0,0,0,0,0,0,0,0,0,0,0,0,0,0,0,0,0,0,0,0,0,0,0,0,0,0,0,0,0,0,0,0,0,0,0,0,0,0,0,0,0,0,0,0,0,0,0,0,5.1368,5.137,0,5.1525,5.1526,5.1528,5.1505,5.1502,5.15,5.1497,5.1658,5.1665,5.1671,0,0,0,0,0,0,0,0,0,0,0,0,0,5.105,5.1056,5.1368,5.137,5.1372,5.1524,5.1526,5.1529,5.1505,5.1502,5.1499,5.1496,5.1656,5.1664,5.1672,0,0,0,0,0,0,0,0,0,0,0,0,0,5.1196,5.1058,5.1367,5.1379,5.1381,5.1524,5.1526,5.1529,5.1506,5.1502,5.1498,5.1495,5.1653,5.1663,5.1673,5.1814,0,0,5.1704,5.1708,0,0,0,0,0,0,0,0,5.1187,5.1207,5.1375,5.1378,5.1381,5.1491,5.1473,5.1625,5.1507,5.1459,5.1497,5.1493,5.1606,5.1619,5.1658,5.1822,5.1829,5.1705,5.1711,5.1715,5.1718,0,0,0,0,0,0,0,5.1177,5.12,5.143,5.1377,5.1381,5.1376,5.1393,5.1502,5.1553,5.1463,5.1461,5.148,5.1607,5.1648,5.1661,5.1831,5.1704,5.1713,5.172,5.1724,5.2122,5.2126,0,0,0,0,0,0,5.1164,5.1192,5.1425,5.1434,5.1273,5.1385,5.1403,5.146,5.1551,5.1561,5.1483,5.1479,5.1633,5.1649,5.1667,5.1839,5.1715,5.1725,5.173,5.2117,5.2123,5.2127,0,0,0,0,0,0,5.1157,5.1185,5.1418,5.1313,5.1342,5.1395,5.1458,5.1465,5.1506,5.1567,5.1576,5.1516,5.163,5.1652,5.1778,5.1844,5.1729,5.1738,5.2112,5.2119,5.2125,5.2185,0,0,0,0,0,0,5.1148,5.1183,5.1237,5.1315,5.1348,5.1527,5.1463,5.1471,5.1524,5.1519,5.16,5.161,5.1629,5.1763,5.1788,5.1856,5.1746,5.2106,5.2115,5.2123,5.2177,5.2193,5.2206,0,0,0,0,0,5.1137,5.1247,5.1239,5.1268,5.1417,5.1531,5.155,5.157,5.1529,5.1584,5.1623,5.1607,5.1833,5.1776,5.1804,5.1876,5.2102,5.2112,5.2122,5.2171,5.219,5.2206,0,0,0,0,0,0,5.1175,5.1257,5.125,5.1388,5.1453,5.1527,5.1596,5.1589,5.1667,5.1659,5.168,5.1699,5.1826,5.1864,5.1799,5.2019,5.1962,5.1978,5.1989,5.2008,5.2022,5.201,5.1755,0,0,0,0,0,5.12,5.1285,5.1353,5.1468,5.1501,5.1544,5.1594,5.1604,5.1671,5.1699,5.1747,5.1814,5.19,5.1956,5.2039,5.2183,5.2201,5.2247,5.2261,5.2273,5.2286,5.2367,5.2388,5.2161,5.2161,5.216,0,0,5.1251,5.1307,5.1359,5.1477,5.1529,5.1618,5.1566,5.1662,5.1729,5.1713,5.1835,5.1873,5.1949,5.2085,5.2147,5.212,5.2353,5.2286,5.2294,5.2302,5.2379,5.2401,5.242,5.2168,5.2166,5.2165,0,0,5.139,5.1441,5.1543,5.1596,5.1674,5.1702,5.1726,5.1802,5.1827,5.195,5.1941,5.202,5.2168,5.2223,5.227,5.2432,5.2421,5.2459,5.2534,5.2612,5.263,5.2646,5.2705,5.2725,5.2472,5.2472,5.2473,0,5.1444,5.1577,5.1596,5.1694,5.1747,5.1737,5.1842,5.1892,5.1993,5.203,5.1999,5.2185,5.2236,5.2385,5.2425,5.2463,5.2493,5.2449,5.2626,5.2642,5.2658,5.2713,5.2735,5.2477,5.2476,5.2476,5.2475,0,5.164,5.1733,5.1806,5.1905,5.1966,5.2066,5.2101,5.2161,5.2166,5.2197,5.2323,5.2384,5.2479,5.2515,5.2521,5.2666,5.2647,5.2621,5.2564,5.2683,5.2736,5.2757,5.2482,5.2481,5.248,5.2479,0,0,5.1806,5.1915,5.1942,5.1987,5.2074,5.2146,5.2247,5.234,5.2391,5.2462,5.2548,5.2674,5.2651,5.2704,5.2716,5.2785,5.2911,5.2751,5.2753,5.2778,5.3075,5.3094,5.3119,5.2904,5.2908,5.2911,5.3069,0,5.1953,5.2131,5.2152,5.231,5.2397,5.239,5.2478,5.2541,5.2574,5.2652,5.2688,5.2778,5.274,5.2773,5.284,5.2881,5.2971,5.287,5.2984,5.2988,5.2965,5.3146,5.3167,5.3312,5.309,5.3093,5.3096,0,5.2148,5.2225,5.2392,5.2469,5.2506,5.2584,5.2672,5.2747,5.282,5.2839,5.29,5.2903,5.3008,5.2948,5.3094,5.3025,5.3073,5.31,5.3106,5.3117,5.3049,5.3162,5.3359,5.3381,5.3129,5.3126,5.3124,0,5.2253,5.2399,5.2518,5.2556,5.2648,5.2704,5.2745,5.2813,5.2868,5.2946,5.2982,5.3071,5.3119,5.3188,5.3216,5.317,5.3361,5.3302,5.338,5.3379,5.342,5.3417,5.3627,5.3451,5.3451,5.345,5.345,0,5.2415,5.2518,5.2566,5.2639,5.2754,5.2778,5.2892,5.293,5.2992,5.3073,5.3073,5.3149,5.3181,5.3263,5.3286,5.3404,5.3425,5.3444,5.3449,5.3444,5.3442,5.3475,5.3466,5.3456,5.3455,5.3454,5.3453,0,5.2551,5.2588,5.2717,5.2794,5.2816,5.2897,5.2963,5.3034,5.3067,5.3169,5.3195,5.3246,5.3342,5.3377,5.3494,5.351,5.3646,5.3643,5.3622,5.3623,5.3698,5.3691,5.3937,5.3971,5.3773,5.3775,5.3777,0,5.2652,5.2731,5.2817,5.2871,5.2914,5.3002,5.3058,5.3086,5.3145,5.3234,5.3295,5.3391,5.3469,5.3624,5.3671,5.3761,5.376,5.384,5.3773,5.3767,5.3762,5.3756,5.3765,5.3853,5.3855,5.3856,5.3858,0,5.2828,5.2842,5.2924,5.3013,5.3081,5.3152,5.3221,5.3265,5.3303,5.337,5.3469,5.3529,5.365,5.3745,5.3838,5.3881,5.3876,5.3879,5.3901,5.3897,5.3882,5.3891,5.3655,5.3872,5.3871,5.387,5.3869,5.3868,5.295,5.302,5.3091,5.3183,5.3238,5.3303,5.3374,5.3415,5.3498,5.3598,5.3609,5.3716,5.3788,5.3912,5.3959,5.4043,5.4021,5.4054,5.4062,5.407,5.4075,5.3869,5.406,5.406,5.4059,5.4059,5.4059,0,5.3125,5.3172,5.3255,5.3352,5.3425,5.3414,5.3491,5.3552,5.3645,5.3713,5.379,5.3904,5.3997,5.4053,5.4147,5.4203,5.4204,5.4227,5.4223,5.4233,5.4089,5.406,5.4225,5.4225,5.4225,5.4225,5.4225,5.4225,5.3225,5.3344,5.3367,5.3513,5.3559,5.3663,5.3707,5.3768,5.3822,5.3949,5.4026,5.4062,5.4126,5.4224,5.431,5.4324,5.4358,5.4384,5.4396,5.426,5.4243,5.4227,5.42,5.4391,5.4391,5.4533,5.4534,5.4535]},{"header":{"parameterUnit":"m.s-1","parameterCategory":1,"la1":30.2991,"la2":30.254,"lo1":-89.0895,"lo2":-89.0444,"dy":0.0017,"dx":0.0017,"nx":28,"ny":28,"refTime":"2024-04-04T21:00:00:Z","depth":0,"parameterNumber":3,"parameterNumberName":"V-component_of_WINDS"},"data":[0,0,0,0,0,0,0,0,0,0,0,0,0,0,0,0,0,0,0,0,0,0,0,0,0,0,0,0,0,0,0,0,0,0,0,0,0,0,0,0,0,0,0,0,0,0,0,0,0,0,0,0,0,0,0,0,0,0,-0.7347,-0.7347,0,-0.7368,-0.7368,-0.7369,-0.7415,-0.7416,-0.7417,-0.7417,-0.7437,-0.7437,-0.7437,0,0,0,0,0,0,0,0,0,0,0,0,0,-0.7344,-0.7344,-0.7347,-0.7347,-0.7347,-0.7368,-0.7368,-0.7369,-0.7414,-0.7416,-0.7417,-0.7418,-0.7437,-0.7437,-0.7436,0,0,0,0,0,0,0,0,0,0,0,0,0,-0.7353,-0.7344,-0.7347,-0.7373,-0.7375,-0.7368,-0.7368,-0.7369,-0.7414,-0.7416,-0.7417,-0.7418,-0.7437,-0.7437,-0.7436,-0.7405,0,0,-0.7435,-0.7435,0,0,0,0,0,0,0,0,-0.7353,-0.7353,-0.7369,-0.7371,-0.7374,-0.739,-0.7375,-0.7381,-0.7414,-0.7399,-0.7417,-0.7419,-0.742,-0.7421,-0.7422,-0.7406,-0.7407,-0.7435,-0.7434,-0.7434,-0.7434,0,0,0,0,0,0,0,-0.7352,-0.7353,-0.7355,-0.7369,-0.7372,-0.7383,-0.7386,-0.7376,-0.7402,-0.7401,-0.7404,-0.7406,-0.7422,-0.7422,-0.7423,-0.7407,-0.7435,-0.7434,-0.7434,-0.7434,-0.7365,-0.7363,0,0,0,0,0,0,-0.7348,-0.7352,-0.7354,-0.7356,-0.7367,-0.7382,-0.7385,-0.7383,-0.7402,-0.7406,-0.7405,-0.7408,-0.7423,-0.7423,-0.7424,-0.7387,-0.7434,-0.7434,-0.7433,-0.7366,-0.7365,-0.7363,0,0,0,0,0,0,-0.7348,-0.7348,-0.7354,-0.7355,-0.7356,-0.738,-0.7378,-0.7383,-0.7384,-0.7405,-0.741,-0.7401,-0.7424,-0.7424,-0.7409,-0.7388,-0.7433,-0.7433,-0.7368,-0.7366,-0.7364,-0.7314,0,0,0,0,0,0,-0.7347,-0.7347,-0.7336,-0.7354,-0.7356,-0.7339,-0.7377,-0.7383,-0.7383,-0.7387,-0.7402,-0.7406,-0.7425,-0.741,-0.7409,-0.7388,-0.7433,-0.737,-0.7367,-0.7364,-0.7317,-0.731,-0.7304,0,0,0,0,0,-0.7347,-0.7321,-0.7335,-0.7335,-0.7342,-0.7338,-0.7339,-0.7361,-0.7381,-0.7369,-0.7383,-0.7406,-0.7391,-0.7408,-0.7407,-0.7386,-0.7371,-0.7368,-0.7365,-0.732,-0.7312,-0.7304,0,0,0,0,0,0,-0.7299,-0.7324,-0.734,-0.7319,-0.7326,-0.7346,-0.7332,-0.7352,-0.7353,-0.7357,-0.7384,-0.7387,-0.7368,-0.7376,-0.7394,-0.7356,-0.7385,-0.7381,-0.7352,-0.7343,-0.7337,-0.7334,-0.7432,0,0,0,0,0,-0.7286,-0.728,-0.7302,-0.7282,-0.7284,-0.7307,-0.7306,-0.7323,-0.7331,-0.7334,-0.7347,-0.7353,-0.735,-0.7348,-0.7346,-0.7319,-0.7323,-0.7305,-0.7298,-0.7292,-0.7288,-0.7274,-0.7266,-0.7352,-0.7352,-0.7352,0,0,-0.7258,-0.7271,-0.7266,-0.7272,-0.728,-0.7273,-0.7309,-0.7301,-0.7296,-0.7333,-0.7319,-0.7328,-0.7337,-0.7316,-0.7307,-0.7322,-0.7266,-0.7288,-0.7283,-0.7282,-0.7269,-0.7261,-0.7254,-0.7349,-0.735,-0.735,0,0,-0.7205,-0.7215,-0.7198,-0.7205,-0.7216,-0.7232,-0.7228,-0.7245,-0.7252,-0.7239,-0.7267,-0.7261,-0.7255,-0.726,-0.7262,-0.7211,-0.7231,-0.721,-0.7174,-0.7159,-0.7152,-0.7146,-0.7127,-0.712,-0.7206,-0.7206,-0.7206,0,-0.7169,-0.7161,-0.7187,-0.7176,-0.7178,-0.7212,-0.7195,-0.72,-0.721,-0.721,-0.7227,-0.722,-0.7228,-0.7208,-0.7196,-0.7196,-0.7192,-0.7207,-0.7151,-0.7146,-0.7141,-0.7122,-0.7115,-0.7203,-0.7203,-0.7204,-0.7204,0,-0.7116,-0.7109,-0.7095,-0.7104,-0.7104,-0.709,-0.7113,-0.711,-0.7127,-0.714,-0.7126,-0.7138,-0.7138,-0.7135,-0.7152,-0.7117,-0.7126,-0.7147,-0.7176,-0.7129,-0.7112,-0.7105,-0.7199,-0.72,-0.7201,-0.7201,0,0,-0.7031,-0.7056,-0.705,-0.7054,-0.7069,-0.7064,-0.7051,-0.7053,-0.7049,-0.7055,-0.7044,-0.7039,-0.7058,-0.706,-0.7077,-0.7065,-0.7022,-0.7087,-0.7088,-0.7073,-0.6983,-0.6966,-0.6957,-0.7036,-0.7035,-0.7034,-0.6981,0,-0.698,-0.6961,-0.6984,-0.6959,-0.6953,-0.6985,-0.6974,-0.6982,-0.6994,-0.699,-0.7004,-0.6999,-0.7026,-0.7027,-0.7016,-0.7029,-0.7004,-0.7034,-0.7025,-0.7024,-0.702,-0.6948,-0.6931,-0.688,-0.6975,-0.6974,-0.6973,0,-0.6918,-0.6921,-0.6895,-0.6912,-0.691,-0.6899,-0.6902,-0.6899,-0.6908,-0.6917,-0.692,-0.6941,-0.6929,-0.6958,-0.6942,-0.6961,-0.696,-0.6965,-0.6964,-0.6963,-0.6995,-0.6944,-0.6865,-0.6857,-0.6963,-0.6964,-0.6965,0,-0.6857,-0.6855,-0.6839,-0.6842,-0.6861,-0.6853,-0.686,-0.6871,-0.687,-0.6872,-0.6872,-0.6873,-0.6873,-0.6873,-0.6893,-0.6913,-0.6873,-0.6905,-0.688,-0.6879,-0.6869,-0.6869,-0.6787,-0.687,-0.687,-0.687,-0.6871,0,-0.6797,-0.6779,-0.6812,-0.6802,-0.6783,-0.681,-0.6791,-0.6802,-0.6811,-0.6803,-0.6831,-0.6823,-0.6852,-0.6846,-0.6862,-0.6845,-0.6845,-0.6852,-0.6856,-0.6849,-0.6847,-0.6846,-0.685,-0.6868,-0.6869,-0.6869,-0.687,0,-0.6725,-0.6746,-0.6731,-0.675,-0.6755,-0.674,-0.6756,-0.6747,-0.6762,-0.6751,-0.6751,-0.6773,-0.6768,-0.6789,-0.6788,-0.6799,-0.6772,-0.6783,-0.6769,-0.6772,-0.6745,-0.6747,-0.6659,-0.6648,-0.6739,-0.6738,-0.6737,0,-0.6684,-0.6672,-0.669,-0.6687,-0.6693,-0.6688,-0.6687,-0.6713,-0.6711,-0.6721,-0.671,-0.6708,-0.6707,-0.6698,-0.6713,-0.6712,-0.6722,-0.6692,-0.6722,-0.6715,-0.672,-0.672,-0.6718,-0.6684,-0.6683,-0.6682,-0.6682,0,-0.6609,-0.662,-0.6619,-0.6621,-0.662,-0.6622,-0.6627,-0.6623,-0.6651,-0.6647,-0.6643,-0.6642,-0.6641,-0.6638,-0.664,-0.6647,-0.6668,-0.6672,-0.6666,-0.6657,-0.6649,-0.6652,-0.675,-0.6674,-0.6674,-0.6675,-0.6675,-0.6676,-0.6551,-0.6541,-0.6552,-0.6549,-0.6555,-0.6559,-0.6551,-0.6565,-0.6562,-0.6563,-0.6579,-0.6571,-0.658,-0.6585,-0.659,-0.6584,-0.6598,-0.659,-0.6587,-0.6584,-0.6579,-0.6651,-0.6584,-0.6585,-0.6585,-0.6585,-0.6585,0,-0.6476,-0.6485,-0.6482,-0.6488,-0.6485,-0.6507,-0.6513,-0.6509,-0.6502,-0.6509,-0.6508,-0.6502,-0.6499,-0.6515,-0.6514,-0.6506,-0.6515,-0.6504,-0.6504,-0.6505,-0.6567,-0.6572,-0.6496,-0.6496,-0.6496,-0.6496,-0.6496,-0.6496,-0.6437,-0.6421,-0.6433,-0.642,-0.6429,-0.6422,-0.6424,-0.6427,-0.6432,-0.6425,-0.6423,-0.6433,-0.6443,-0.6443,-0.6441,-0.6445,-0.6443,-0.6428,-0.6436,-0.6493,-0.6501,-0.6509,-0.6514,-0.6428,-0.6428,-0.6375,-0.6374,-0.6374]}]]